Time,TemperatureF,DewpointF,PressureIn,WindDirection,WindDirectionDegrees,WindSpeedMPH,WindSpeedGustMPH,Humidity,HourlyPrecipIn,Conditions,Clouds,dailyrainin,SolarRadiationWatts/m^2,SoftwareType,DateUTC
2013-04-20 00:09:00,23.8,21.0,29.73,WNW,289,2.0,6.0,89,0.00,,,0.00,0,weatherlink.com 1.10,2013-04-20 04:09:00,
2013-04-20 00:24:00,23.7,21.0,29.74,WNW,289,3.0,5.0,89,0.00,,,0.00,0,weatherlink.com 1.10,2013-04-20 04:24:00,
2013-04-20 00:39:00,23.5,21.0,29.75,WNW,289,1.0,5.0,90,0.00,,,0.00,0,weatherlink.com 1.10,2013-04-20 04:39:00,
2013-04-20 00:54:00,23.4,21.0,29.76,WNW,289,2.0,5.0,89,0.00,,,0.00,0,weatherlink.com 1.10,2013-04-20 04:54:00,
2013-04-20 01:09:00,23.5,21.0,29.77,WNW,289,7.0,7.0,89,0.00,,,0.00,0,weatherlink.com 1.10,2013-04-20 05:09:00,
2013-04-20 01:24:00,23.5,21.0,29.78,WNW,289,3.0,6.0,88,0.00,,,0.00,0,weatherlink.com 1.10,2013-04-20 05:24:00,
2013-04-20 01:39:00,23.4,21.0,29.79,WNW,289,1.0,5.0,89,0.00,,,0.00,0,weatherlink.com 1.10,2013-04-20 05:39:00,
2013-04-20 01:54:00,23.4,21.0,29.80,WNW,289,1.0,4.0,89,0.00,,,0.00,0,weatherlink.com 1.10,2013-04-20 05:54:00,
2013-04-20 02:09:00,23.3,21.0,29.80,WNW,289,3.0,4.0,90,0.00,,,0.00,0,weatherlink.com 1.10,2013-04-20 06:09:00,
2013-04-20 02:24:00,23.3,21.0,29.82,WNW,289,1.0,7.0,90,0.00,,,0.00,0,weatherlink.com 1.10,2013-04-20 06:24:00,
2013-04-20 02:40:00,22.9,21.0,29.82,WNW,289,2.0,7.0,91,0.00,,,0.00,0,weatherlink.com 1.10,2013-04-20 06:40:00,
2013-04-20 02:55:00,22.7,21.0,29.83,WNW,289,1.0,6.0,91,0.00,,,0.00,0,weatherlink.com 1.10,2013-04-20 06:55:00,
2013-04-20 03:10:00,22.6,21.0,29.84,WNW,289,0.0,4.0,92,0.00,,,0.00,0,weatherlink.com 1.10,2013-04-20 07:10:00,
2013-04-20 03:25:00,22.4,20.0,29.85,WNW,289,3.0,5.0,91,0.00,,,0.00,0,weatherlink.com 1.10,2013-04-20 07:25:00,
2013-04-20 03:40:00,22.2,20.0,29.85,WNW,289,3.0,3.0,90,0.00,,,0.00,0,weatherlink.com 1.10,2013-04-20 07:40:00,
2013-04-20 03:55:00,22.0,20.0,29.86,WNW,289,3.0,3.0,90,0.00,,,0.00,0,weatherlink.com 1.10,2013-04-20 07:55:00,
2013-04-20 04:10:00,21.8,19.0,29.86,WNW,289,1.0,4.0,90,0.00,,,0.00,0,weatherlink.com 1.10,2013-04-20 08:10:00,
2013-04-20 04:25:00,21.8,19.0,29.87,WNW,289,1.0,4.0,90,0.00,,,0.00,0,weatherlink.com 1.10,2013-04-20 08:25:00,
2013-04-20 04:40:00,21.8,19.0,29.88,WNW,289,2.0,4.0,90,0.00,,,0.00,0,weatherlink.com 1.10,2013-04-20 08:40:00,
2013-04-20 04:55:00,21.6,19.0,29.89,WNW,289,2.0,4.0,89,0.00,,,0.00,0,weatherlink.com 1.10,2013-04-20 08:55:00,
2013-04-20 05:10:00,21.4,19.0,29.89,WNW,289,2.0,2.0,89,0.00,,,0.00,0,weatherlink.com 1.10,2013-04-20 09:10:00,
2013-04-20 05:25:00,21.3,19.0,29.91,WNW,289,2.0,3.0,89,0.00,,,0.00,0,weatherlink.com 1.10,2013-04-20 09:25:00,
2013-04-20 05:40:00,21.2,18.0,29.91,WNW,289,1.0,3.0,88,0.00,,,0.00,0,weatherlink.com 1.10,2013-04-20 09:40:00,
2013-04-20 05:55:00,21.1,18.0,29.92,WNW,289,1.0,3.0,88,0.00,,,0.00,0,weatherlink.com 1.10,2013-04-20 09:55:00,
2013-04-20 06:10:00,21.2,18.0,29.92,WNW,289,3.0,4.0,88,0.00,,,0.00,0,weatherlink.com 1.10,2013-04-20 10:10:00,
2013-04-20 06:25:00,21.3,19.0,29.93,WNW,289,1.0,4.0,89,0.00,,,0.00,0,weatherlink.com 1.10,2013-04-20 10:25:00,
2013-04-20 06:40:00,21.3,18.0,29.94,WNW,289,0.0,4.0,88,0.00,,,0.00,0,weatherlink.com 1.10,2013-04-20 10:40:00,
2013-04-20 06:55:00,21.2,18.0,29.95,WNW,289,3.0,3.0,87,0.00,,,0.00,0,weatherlink.com 1.10,2013-04-20 10:55:00,
2013-04-20 07:10:00,21.2,18.0,29.96,WNW,289,2.0,3.0,87,0.00,,,0.00,0,weatherlink.com 1.10,2013-04-20 11:10:00,
2013-04-20 07:25:00,21.1,18.0,29.97,WNW,289,2.0,5.0,87,0.00,,,0.00,5,weatherlink.com 1.10,2013-04-20 11:25:00,
2013-04-20 07:40:00,21.2,18.0,29.98,WNW,289,2.0,4.0,86,0.00,,,0.00,7,weatherlink.com 1.10,2013-04-20 11:40:00,
2013-04-20 07:55:00,21.3,18.0,29.99,WNW,289,2.0,5.0,85,0.00,,,0.00,12,weatherlink.com 1.10,2013-04-20 11:55:00,
2013-04-20 08:10:00,21.6,18.0,30.00,WNW,289,0.0,4.0,84,0.00,,,0.00,18,weatherlink.com 1.10,2013-04-20 12:10:00,
2013-04-20 08:25:00,22.0,18.0,30.02,WNW,289,1.0,3.0,85,0.00,,,0.00,26,weatherlink.com 1.10,2013-04-20 12:25:00,
2013-04-20 08:40:00,22.3,18.0,30.02,WNW,289,3.0,3.0,84,0.00,,,0.00,58,weatherlink.com 1.10,2013-04-20 12:40:00,
2013-04-20 08:56:00,23.5,19.0,30.03,WNW,289,2.0,6.0,81,0.00,,,0.00,111,weatherlink.com 1.10,2013-04-20 12:56:00,
2013-04-20 09:11:00,25.3,19.0,30.05,WNW,289,4.0,7.0,78,0.00,,,0.00,127,weatherlink.com 1.10,2013-04-20 13:11:00,
2013-04-20 09:26:00,26.5,20.0,30.05,WNW,289,4.0,7.0,77,0.00,,,0.00,211,weatherlink.com 1.10,2013-04-20 13:26:00,
2013-04-20 09:41:00,26.8,21.0,30.06,WNW,289,2.0,7.0,77,0.01,,,0.01,585,weatherlink.com 1.10,2013-04-20 13:41:00,
2013-04-20 09:56:00,26.7,19.0,30.07,WNW,290,4.0,7.0,72,0.01,,,0.01,237,weatherlink.com 1.10,2013-04-20 13:56:00,
2013-04-20 10:11:00,26.5,19.0,30.08,WNW,290,2.0,8.0,74,0.01,,,0.01,241,weatherlink.com 1.10,2013-04-20 14:11:00,
2013-04-20 10:26:00,26.8,20.0,30.09,WNW,290,2.0,8.0,74,0.01,,,0.01,241,weatherlink.com 1.10,2013-04-20 14:26:00,
2013-04-20 10:41:00,26.7,19.0,30.10,WNW,290,4.0,6.0,74,0.00,,,0.01,708,weatherlink.com 1.10,2013-04-20 14:41:00,
2013-04-20 10:56:00,27.7,19.0,30.11,NW,315,2.0,5.0,71,0.00,,,0.01,316,weatherlink.com 1.10,2013-04-20 14:56:00,
2013-04-20 11:11:00,28.3,20.0,30.12,NW,317,2.0,5.0,70,0.00,,,0.01,350,weatherlink.com 1.10,2013-04-20 15:11:00,
2013-04-20 11:26:00,28.9,20.0,30.12,NW,324,2.0,6.0,68,0.01,,,0.02,394,weatherlink.com 1.10,2013-04-20 15:26:00,
2013-04-20 11:41:00,28.6,19.0,30.14,NW,321,4.0,7.0,68,0.02,,,0.03,837,weatherlink.com 1.10,2013-04-20 15:41:00,
2013-04-20 11:56:00,29.5,19.0,30.14,NNW,333,2.0,10.0,64,0.03,,,0.04,294,weatherlink.com 1.10,2013-04-20 15:56:00,
2013-04-20 12:11:00,30.5,20.0,30.15,NW,311,2.0,9.0,64,0.03,,,0.04,1011,weatherlink.com 1.10,2013-04-20 16:11:00,
2013-04-20 12:26:00,29.8,19.0,30.16,NNW,329,4.0,7.0,64,0.03,,,0.05,687,weatherlink.com 1.10,2013-04-20 16:26:00,
2013-04-20 12:41:00,31.1,19.0,30.17,NW,325,1.0,7.0,62,0.03,,,0.06,329,weatherlink.com 1.10,2013-04-20 16:41:00,
2013-04-20 12:56:00,31.2,20.0,30.17,NW,315,4.0,8.0,64,0.03,,,0.07,1023,weatherlink.com 1.10,2013-04-20 16:56:00,
2013-04-20 13:11:00,31.9,18.0,30.18,NNW,327,2.0,4.0,58,0.02,,,0.07,494,weatherlink.com 1.10,2013-04-20 17:11:00,
2013-04-20 13:26:00,31.6,18.0,30.19,North,351,3.0,9.0,57,0.03,,,0.08,345,weatherlink.com 1.10,2013-04-20 17:26:00,
2013-04-20 13:41:00,32.3,19.0,30.20,NNW,345,3.0,9.0,58,0.02,,,0.08,1118,weatherlink.com 1.10,2013-04-20 17:41:00,
2013-04-20 13:57:00,33.4,19.0,30.20,NNW,331,3.0,5.0,57,0.01,,,0.08,1086,weatherlink.com 1.10,2013-04-20 17:57:00,
2013-04-20 14:12:00,33.0,19.0,30.21,WNW,300,3.0,5.0,56,0.01,,,0.08,267,weatherlink.com 1.10,2013-04-20 18:12:00,
2013-04-20 14:27:00,33.2,20.0,30.22,NNW,344,1.0,4.0,58,0.00,,,0.08,527,weatherlink.com 1.10,2013-04-20 18:27:00,
2013-04-20 14:42:00,34.7,19.0,30.22,North,5,0.0,5.0,53,0.00,,,0.08,1157,weatherlink.com 1.10,2013-04-20 18:42:00,
2013-04-20 14:57:00,34.9,19.0,30.23,NNW,342,2.0,5.0,53,0.00,,,0.08,1014,weatherlink.com 1.10,2013-04-20 18:57:00,
2013-04-20 15:12:00,36.1,19.0,30.23,NE,36,3.0,7.0,51,0.00,,,0.08,979,weatherlink.com 1.10,2013-04-20 19:12:00,
2013-04-20 15:27:00,32.6,20.0,30.25,NE,40,4.0,11.0,61,0.00,,,0.08,309,weatherlink.com 1.10,2013-04-20 19:27:00,
2013-04-20 15:42:00,32.3,20.0,30.25,NNE,26,2.0,9.0,62,0.00,,,0.08,237,weatherlink.com 1.10,2013-04-20 19:42:00,
2013-04-20 15:57:00,32.2,20.0,30.26,NNE,30,8.0,10.0,62,0.00,,,0.08,853,weatherlink.com 1.10,2013-04-20 19:57:00,
2013-04-20 16:12:00,32.0,21.0,30.26,NE,40,5.0,11.0,63,0.00,,,0.08,529,weatherlink.com 1.10,2013-04-20 20:12:00,
2013-04-20 16:27:00,31.5,20.0,30.27,North,355,3.0,10.0,63,0.00,,,0.08,624,weatherlink.com 1.10,2013-04-20 20:27:00,
2013-04-20 16:42:00,32.6,21.0,30.28,NNW,331,2.0,8.0,62,0.00,,,0.08,700,weatherlink.com 1.10,2013-04-20 20:42:00,
2013-04-20 16:57:00,32.3,20.0,30.29,NNW,347,2.0,8.0,62,0.00,,,0.08,721,weatherlink.com 1.10,2013-04-20 20:57:00,
2013-04-20 17:12:00,31.6,20.0,30.29,NNW,344,4.0,8.0,63,0.00,,,0.08,169,weatherlink.com 1.10,2013-04-20 21:12:00,
2013-04-20 17:27:00,31.9,20.0,30.30,North,5,2.0,9.0,63,0.00,,,0.08,396,weatherlink.com 1.10,2013-04-20 21:27:00,
2013-04-20 17:42:00,31.5,19.0,30.30,NE,40,4.0,10.0,60,0.00,,,0.08,183,weatherlink.com 1.10,2013-04-20 21:42:00,
2013-04-20 17:57:00,30.7,20.0,30.31,NNE,13,3.0,12.0,64,0.00,,,0.08,107,weatherlink.com 1.10,2013-04-20 21:57:00,
2013-04-20 18:12:00,30.4,19.0,30.31,WNW,301,0.0,7.0,64,0.00,,,0.08,151,weatherlink.com 1.10,2013-04-20 22:12:00,
2013-04-20 18:27:00,30.3,19.0,30.32,North,355,1.0,11.0,64,0.00,,,0.08,98,weatherlink.com 1.10,2013-04-20 22:27:00,
2013-04-20 18:42:00,30.1,19.0,30.32,NE,48,2.0,7.0,63,0.00,,,0.08,63,weatherlink.com 1.10,2013-04-20 22:42:00,
2013-04-20 18:57:00,29.8,18.0,30.33,WNW,302,3.0,8.0,63,0.00,,,0.08,35,weatherlink.com 1.10,2013-04-20 22:57:00,
2013-04-20 19:12:00,29.6,18.0,30.34,NNE,13,3.0,8.0,63,0.00,,,0.08,33,weatherlink.com 1.10,2013-04-20 23:12:00,
2013-04-20 19:27:00,29.4,19.0,30.34,NE,45,4.0,5.0,65,0.00,,,0.08,37,weatherlink.com 1.10,2013-04-20 23:27:00,
2013-04-20 19:42:00,29.2,18.0,30.34,NW,311,2.0,5.0,64,0.00,,,0.08,25,weatherlink.com 1.10,2013-04-20 23:42:00,
2013-04-20 19:57:00,28.9,18.0,30.35,NE,45,2.0,5.0,64,0.00,,,0.08,21,weatherlink.com 1.10,2013-04-20 23:57:00,
2013-04-20 20:12:00,28.6,18.0,30.35,NE,52,0.0,7.0,65,0.00,,,0.08,16,weatherlink.com 1.10,2013-04-21 00:12:00,
2013-04-20 20:27:00,28.4,18.0,30.36,NE,55,1.0,8.0,66,0.00,,,0.08,11,weatherlink.com 1.10,2013-04-21 00:27:00,
2013-04-20 20:42:00,28.1,18.0,30.36,ENE,63,1.0,4.0,67,0.00,,,0.08,0,weatherlink.com 1.10,2013-04-21 00:42:00,
2013-04-20 20:57:00,27.8,18.0,30.37,ENE,63,0.0,2.0,68,0.00,,,0.08,0,weatherlink.com 1.10,2013-04-21 00:57:00,
2013-04-20 21:12:00,27.3,18.0,30.37,ENE,63,0.0,0.0,68,0.00,,,0.08,0,weatherlink.com 1.10,2013-04-21 01:12:00,
2013-04-20 21:27:00,26.6,19.0,30.38,ENE,63,0.0,0.0,72,0.00,,,0.08,0,weatherlink.com 1.10,2013-04-21 01:27:00,
2013-04-20 21:42:00,25.7,18.0,30.38,ENE,63,0.0,1.0,73,0.00,,,0.08,0,weatherlink.com 1.10,2013-04-21 01:42:00,
2013-04-20 21:57:00,24.8,18.0,30.39,ENE,63,0.0,0.0,75,0.00,,,0.08,0,weatherlink.com 1.10,2013-04-21 01:57:00,
2013-04-20 22:12:00,24.1,18.0,30.39,ENE,63,0.0,0.0,78,0.00,,,0.08,0,weatherlink.com 1.10,2013-04-21 02:12:00,
2013-04-20 22:27:00,23.5,18.0,30.40,ENE,63,0.0,0.0,79,0.00,,,0.08,0,weatherlink.com 1.10,2013-04-21 02:27:00,
2013-04-20 22:42:00,23.1,18.0,30.40,ENE,63,0.0,0.0,81,0.00,,,0.08,0,weatherlink.com 1.10,2013-04-21 02:42:00,
2013-04-20 22:57:00,22.5,18.0,30.41,ENE,63,0.0,0.0,81,0.00,,,0.08,0,weatherlink.com 1.10,2013-04-21 02:57:00,
2013-04-20 23:12:00,21.9,17.0,30.41,ENE,63,0.0,0.0,82,0.00,,,0.08,0,weatherlink.com 1.10,2013-04-21 03:12:00,
2013-04-20 23:27:00,21.2,17.0,30.41,ENE,63,0.0,0.0,83,0.00,,,0.08,0,weatherlink.com 1.10,2013-04-21 03:27:00,
2013-04-20 23:43:00,20.7,17.0,30.41,ENE,63,0.0,1.0,85,0.00,,,0.08,0,weatherlink.com 1.10,2013-04-21 03:43:00,
2013-04-20 23:58:00,20.7,17.0,30.42,ENE,63,0.0,0.0,85,0.00,,,0.08,0,weatherlink.com 1.10,2013-04-21 03:58:00,